| time (UTC) | temp F | wind direction | speed MPH | gust MPH | rain 1hr in | rain 24hr in | rain mn in | humidity % | barometer mb |
| 20260505100538 | 53 | 203 | 4.0 | 10.0 | 0.00 | 0.00 | 0.00 | 90 | 1011.6 |
| 20260505095517 | 53 | 225 | 4.0 | 10.0 | 0.00 | 0.00 | 0.00 | 90 | 1011.4 |
| 20260505094516 | 53 | 180 | 5.0 | 10.0 | 0.00 | 0.00 | 0.00 | 91 | 1011.4 |
| 20260505093518 | 53 | 203 | 4.0 | 14.0 | 0.00 | 0.00 | 0.00 | 91 | 1011.4 |
| 20260505092517 | 53 | 180 | 5.0 | 14.0 | 0.00 | 0.00 | 0.00 | 91 | 1011.3 |
| 20260505091518 | 53 | 203 | 4.0 | 12.0 | 0.00 | 0.00 | 0.00 | 91 | 1011.4 |
| 20260505090517 | 53 | 180 | 3.0 | 6.0 | 0.00 | 0.00 | 0.00 | 91 | 1011.4 |
| 20260505085516 | 53 | 203 | 3.0 | 6.0 | 0.00 | 0.00 | 0.00 | 91 | 1011.3 |
| 20260505084516 | 53 | 203 | 4.0 | 8.0 | 0.00 | 0.00 | 0.00 | 91 | 1011.3 |
| 20260505083516 | 53 | 180 | 3.0 | 10.0 | 0.00 | 0.00 | 0.00 | 91 | 1011.4 |
| 20260505082537 | 53 | 225 | 3.0 | 9.0 | 0.00 | 0.00 | 0.00 | 91 | 1011.5 |
| 20260505081516 | 53 | 203 | 3.0 | 9.0 | 0.00 | 0.00 | 0.00 | 91 | 1011.6 |
| 20260505080516 | 53 | 225 | 4.0 | 8.0 | 0.00 | 0.00 | 0.00 | 91 | 1011.6 |
| 20260505075516 | 53 | 180 | 4.0 | 9.0 | 0.00 | 0.00 | 0.00 | 90 | 1011.7 |
| 20260505074537 | 54 | 203 | 5.0 | 14.0 | 0.00 | 0.00 | 0.00 | 90 | 1011.6 |
| 20260505073537 | 54 | 203 | 5.0 | 13.0 | 0.00 | 0.00 | 0.00 | 90 | 1011.6 |
| 20260505072516 | 54 | 180 | 5.0 | 12.0 | 0.00 | 0.00 | 0.00 | 89 | 1011.6 |
| 20260505071537 | 54 | 203 | 5.0 | 11.0 | 0.00 | 0.00 | 0.00 | 90 | 1011.5 |
| 20260505070537 | 53 | 203 | 5.0 | 14.0 | 0.00 | 0.00 | 0.00 | 91 | 1011.6 |
| 20260505065536 | 53 | 203 | 4.0 | 11.0 | 0.00 | 0.00 | 0.00 | 91 | 1011.7 |
| 20260505064516 | 53 | 203 | 4.0 | 10.0 | 0.00 | 0.00 | 0.00 | 91 | 1011.6 |
| 20260505063516 | 53 | 203 | 3.0 | 9.0 | 0.00 | 0.00 | 0.00 | 91 | 1011.7 |
| 20260505062516 | 53 | 248 | 3.0 | 7.0 | 0.00 | 0.00 | 0.00 | 91 | 1011.7 |
| 20260505061516 | 53 | 203 | 4.0 | 9.0 | 0.00 | 0.00 | 0.00 | 91 | 1011.7 |
| 20260505060516 | 53 | 203 | 3.0 | 11.0 | 0.00 | 0.00 | 0.00 | 90 | 1011.7 |
| 20260505055516 | 53 | 203 | 3.0 | 10.0 | 0.00 | 0.00 | 0.00 | 90 | 1011.6 |
| 20260505054516 | 53 | 225 | 3.0 | 7.0 | 0.00 | 0.00 | 0.00 | 90 | 1011.6 |
| 20260505053516 | 53 | 225 | 3.0 | 8.0 | 0.00 | 0.00 | 0.00 | 89 | 1011.7 |
| 20260505052536 | 53 | 203 | 4.0 | 12.0 | 0.00 | 0.00 | 0.00 | 89 | 1011.7 |
| 20260505051516 | 53 | 180 | 3.0 | 10.0 | 0.00 | 0.00 | 0.00 | 89 | 1011.7 |
| 20260505050516 | 53 | 203 | 4.0 | 10.0 | 0.00 | 0.00 | 0.00 | 88 | 1011.6 |
| 20260505041516 | 54 | 203 | 4.0 | 11.0 | 0.00 | 0.00 | 0.00 | 86 | 1011.9 |
| 20260505040538 | 54 | 180 | 4.0 | 9.0 | 0.00 | 0.00 | 0.00 | 85 | 1012.0 |
| 20260505035516 | 54 | 203 | 4.0 | 10.0 | 0.00 | 0.00 | 0.00 | 85 | 1012.1 |
| 20260505034518 | 54 | 203 | 3.0 | 8.0 | 0.00 | 0.00 | 0.00 | 84 | 1012.2 |
| 20260505033517 | 54 | 225 | 5.0 | 11.0 | 0.00 | 0.00 | 0.00 | 84 | 1012.3 |
| 20260505032518 | 54 | 180 | 4.0 | 13.0 | 0.00 | 0.00 | 0.00 | 83 | 1012.0 |
| 20260505031516 | 54 | 203 | 5.0 | 14.0 | 0.00 | 0.00 | 0.00 | 82 | 1012.2 |
| 20260505030517 | 54 | 203 | 4.0 | 10.0 | 0.00 | 0.00 | 0.00 | 82 | 1012.2 |
| 20260505025516 | 54 | 203 | 5.0 | 15.0 | 0.00 | 0.00 | 0.00 | 81 | 1012.2 |
| 20260505024517 | 55 | 203 | 5.0 | 13.0 | 0.00 | 0.00 | 0.00 | 81 | 1012.2 |
| 20260505023516 | 55 | 203 | 6.0 | 16.0 | 0.00 | 0.00 | 0.00 | 80 | 1012.2 |
| 20260505022517 | 55 | 203 | 6.0 | 14.0 | 0.00 | 0.00 | 0.00 | 80 | 1012.3 |
| 20260505021516 | 55 | 225 | 6.0 | 17.0 | 0.00 | 0.00 | 0.00 | 80 | 1012.2 |
| 20260505020518 | 55 | 248 | 6.0 | 17.0 | 0.00 | 0.00 | 0.00 | 79 | 1012.0 |
| 20260505015517 | 55 | 203 | 6.0 | 12.0 | 0.00 | 0.00 | 0.00 | 79 | 1011.9 |
| 20260505014516 | 55 | 203 | 6.0 | 18.0 | 0.00 | 0.00 | 0.00 | 78 | 1011.8 |
| 20260505013516 | 55 | 203 | 6.0 | 13.0 | 0.00 | 0.00 | 0.00 | 78 | 1011.7 |
| 20260505012517 | 55 | 203 | 6.0 | 16.0 | 0.00 | 0.00 | 0.00 | 77 | 1011.5 |
| 20260505011517 | 55 | 203 | 6.0 | 15.0 | 0.00 | 0.00 | 0.00 | 76 | 1011.4 |
| 20260505010516 | 55 | 203 | 7.0 | 19.0 | 0.00 | 0.00 | 0.00 | 75 | 1011.2 |
| 20260505005516 | 55 | 203 | 7.0 | 16.0 | 0.00 | 0.00 | 0.00 | 74 | 1011.0 |
| 20260505004516 | 55 | 225 | 5.0 | 19.0 | 0.00 | 0.00 | 0.00 | 73 | 1010.9 |
| 20260505003516 | 55 | 203 | 7.0 | 14.0 | 0.00 | 0.00 | 0.00 | 72 | 1010.8 |
| 20260505002536 | 56 | 203 | 7.0 | 16.0 | 0.00 | 0.00 | 0.00 | 70 | 1010.6 |
| 20260505001536 | 56 | 203 | 6.0 | 17.0 | 0.00 | 0.00 | 0.00 | 68 | 1010.5 |
| 20260505000516 | 56 | 203 | 5.0 | 11.0 | 0.00 | 0.00 | 0.00 | 67 | 1010.5 |
| 20260504235516 | 56 | 203 | 9.0 | 20.0 | 0.00 | 0.00 | 0.00 | 65 | 1010.3 |
| 20260504234516 | 56 | 203 | 6.0 | 15.0 | 0.00 | 0.00 | 0.00 | 67 | 1010.1 |
| 20260504233516 | 56 | 203 | 6.0 | 18.0 | 0.00 | 0.00 | 0.00 | 67 | 1010.1 |
| 20260504232516 | 57 | 203 | 8.0 | 19.0 | 0.00 | 0.00 | 0.00 | 67 | 1010.0 |
| 20260504231516 | 57 | 0 | 6.0 | 15.0 | 0.00 | 0.00 | 0.00 | 67 | 1009.9 |
| 20260504230516 | 57 | 0 | 7.0 | 20.0 | 0.00 | 0.00 | 0.00 | 67 | 1009.8 |
| 20260504225518 | 57 | 0 | 8.0 | 23.0 | 0.00 | 0.00 | 0.00 | 66 | 1009.7 |
| 20260504224516 | 58 | 0 | 7.0 | 18.0 | 0.00 | 0.00 | 0.00 | 65 | 1009.6 |
| 20260504223516 | 58 | 0 | 7.0 | 13.0 | 0.00 | 0.00 | 0.00 | 64 | 1009.7 |
| 20260504222516 | 59 | 0 | 7.0 | 19.0 | 0.00 | 0.00 | 0.00 | 63 | 1009.6 |
| 20260504221516 | 59 | 0 | 7.0 | 18.0 | 0.00 | 0.00 | 0.00 | 62 | 1009.6 |
| 20260504220516 | 59 | 180 | 9.0 | 24.0 | 0.00 | 0.00 | 0.00 | 61 | 1009.6 |
| 20260504215516 | 60 | 203 | 7.0 | 13.0 | 0.00 | 0.00 | 0.00 | 62 | 1009.8 |
| 20260504214516 | 60 | 203 | 7.0 | 19.0 | 0.00 | 0.00 | 0.00 | 60 | 1009.8 |
| 20260504213516 | 60 | 203 | 8.0 | 20.0 | 0.00 | 0.00 | 0.00 | 61 | 1009.8 |
| 20260504212516 | 61 | 203 | 7.0 | 18.0 | 0.00 | 0.00 | 0.00 | 61 | 1009.7 |
| 20260504211536 | 61 | 203 | 8.0 | 18.0 | 0.00 | 0.00 | 0.00 | 59 | 1009.8 |
| 20260504210516 | 61 | 203 | 8.0 | 21.0 | 0.00 | 0.00 | 0.00 | 57 | 1009.8 |
| 20260504205516 | 63 | 203 | 5.0 | 16.0 | 0.00 | 0.00 | 0.00 | 54 | 1009.6 |
| 20260504204536 | 65 | 203 | 7.0 | 16.0 | 0.00 | 0.00 | 0.00 | 52 | 1009.4 |
| 20260504203516 | 65 | 203 | 7.0 | 18.0 | 0.00 | 0.00 | 0.00 | 51 | 1009.4 |
| 20260504202516 | 65 | 203 | 8.0 | 16.0 | 0.00 | 0.00 | 0.00 | 50 | 1009.4 |
| 20260504201516 | 66 | 203 | 6.0 | 13.0 | 0.00 | 0.00 | 0.00 | 49 | 1009.4 |
| 20260504200536 | 66 | 225 | 8.0 | 21.0 | 0.00 | 0.00 | 0.00 | 46 | 1009.4 |
| 20260504195536 | 66 | 203 | 9.0 | 20.0 | 0.00 | 0.00 | 0.00 | 42 | 1009.3 |
| 20260504194517 | 66 | 203 | 12.0 | 26.0 | 0.00 | 0.00 | 0.00 | 40 | 1009.2 |
| 20260504193516 | 67 | 203 | 8.0 | 21.0 | 0.00 | 0.00 | 0.00 | 39 | 1009.2 |
| 20260504192516 | 67 | 225 | 10.0 | 22.0 | 0.00 | 0.00 | 0.00 | 39 | 1009.4 |
| 20260504191516 | 67 | 225 | 11.0 | 31.0 | 0.00 | 0.00 | 0.00 | 39 | 1009.5 |
| 20260504190516 | 67 | 203 | 11.0 | 30.0 | 0.00 | 0.00 | 0.00 | 42 | 1009.8 |
| 20260504185516 | 67 | 225 | 12.0 | 24.0 | 0.00 | 0.00 | 0.00 | 43 | 1009.6 |
| 20260504184515 | 66 | 203 | 11.0 | 32.0 | 0.00 | 0.00 | 0.00 | 40 | 1009.6 |
| 20260504183516 | 67 | 225 | 10.0 | 22.0 | 0.00 | 0.00 | 0.00 | 41 | 1009.5 |
| 20260504182515 | 67 | 225 | 9.0 | 26.0 | 0.00 | 0.00 | 0.00 | 44 | 1009.4 |
| 20260504181536 | 68 | 203 | 9.0 | 22.0 | 0.00 | 0.00 | 0.00 | 42 | 1009.2 |
| 20260504180515 | 68 | 203 | 8.0 | 24.0 | 0.00 | 0.00 | 0.00 | 43 | 1009.2 |
| 20260504175536 | 67 | 225 | 9.0 | 26.0 | 0.00 | 0.00 | 0.00 | 41 | 1009.3 |
| 20260504174516 | 68 | 180 | 10.0 | 23.0 | 0.00 | 0.00 | 0.00 | 40 | 1009.6 |
| 20260504173515 | 68 | 203 | 8.0 | 18.0 | 0.00 | 0.00 | 0.00 | 38 | 1009.6 |
| 20260504172515 | 67 | 203 | 11.0 | 32.0 | 0.00 | 0.00 | 0.00 | 40 | 1009.6 |
| 20260504171515 | 68 | 203 | 9.0 | 22.0 | 0.00 | 0.00 | 0.00 | 42 | 1009.6 |
| 20260504170516 | 68 | 225 | 6.0 | 11.0 | 0.00 | 0.01 | 0.00 | 46 | 1009.7 |
| 20260504150517 | 65 | 225 | 5.0 | 15.0 | 0.00 | 0.06 | 0.00 | 59 | 1010.6 |
| 20260504140517 | 65 | 0 | 5.0 | 15.0 | 0.00 | 0.06 | 0.00 | 52 | 1010.8 |
| 20260504130517 | 61 | 225 | 9.0 | 19.0 | 0.00 | 0.06 | 0.00 | 55 | 1011.1 |
| 20260504110517 | 51 | 180 | 2.0 | 8.0 | 0.00 | 0.08 | 0.00 | 78 | 1011.3 |